Regional Weather Roundup
Issued by NWS

Home | Current Version | Previous Version | Graphics & Text | Print | Product List | Glossary On
Versions: 1 2 3 4 5 6 7 8 9 10 11 12 13 14 15 16 17 18 19 20 21 22 23 24 25 26 27 28 29 30 31 32 33 34 35 36 37 38 39 40 41 42 43 44 45 46 47 48 49 50
000
ASUS43 KDMX 020007
RWRIA

WEATHER ROUNDUP FOR IOWA
NATIONAL WEATHER SERVICE DES MOINES IA
700 PM CDT TUE SEP 01 2015

NOTE: "FAIR" INDICATES FEW OR NO CLOUDS BELOW 12,000 FEET WITH NO
SIGNIFICANT WEATHER AND/OR OBSTRUCTIONS TO VISIBILITY.

* - THESE STATIONS ARE NOT NWS STATIONS...THUS NOT UNDER NWS
QUALITY CONTROL.  THEY ALSO DO NOT REPORT WEATHER SUCH
AS PRECIPITATION OR FOG.

IAZ001>003-012>014-020>022-031>034-043>046-020100-
   NORTHWEST IOWA

CITY           SKY/WX    TMP DP  RH WIND       PRES   REMARKS
CARROLL *      CLEAR     81  77  89 S6        29.93S HX  88
CHEROKEE *     PTCLDY    79  74  84 S7        29.89F HX  83
DENISON *      CLEAR     81  73  78 S10       29.90S HX  85
LE MARS *      PTSUNNY   81  73  78 SE7       29.88S HX  85
ORANGE CITY *  MOCLDY    81  73  78 S5        29.88F HX  85
SHELDON *      CLEAR     79  73  83 SE7       29.88S HX  82
SIOUX CITY     PTSUNNY   83  71  67 SE10      29.86S HX  87
6HR MIN TEMP:  81; 6HR MAX TEMP:  87;

SPENCER        PTCLDY    80  71  74 S9        29.91S HX  84
6HR MIN TEMP:  80; 6HR MAX TEMP:  86;

STORM LAKE *   CLEAR     79  73  83 S8        29.93S HX  82
$$

IAZ055>058-069>071-079>083-090>094-020100-
   SOUTHWEST IOWA

CITY           SKY/WX    TMP DP  RH WIND       PRES   REMARKS
ATLANTIC *     CLEAR     81  73  78 S7        29.93F HX  85
AUDUBON *      CLEAR     81  73  78 S3        29.95S HX  85
CLARINDA *     CLEAR     84  72  65 S8        29.96R HX  89
COUNCIL BLFS * CLEAR     82  70  65 SE13G20   29.91S HX  86
CRESTON *      CLEAR     82  70  65 S9        29.98S HX  86
LAMONI         PTCLDY    84  68  58 S7        29.98S HX  87
6HR MIN TEMP:  84; 6HR MAX TEMP:  89;

RED OAK *      CLEAR     82  72  69 S7        29.93S HX  87
SHENANDOAH *   CLEAR     82  70  65 SE8G15    29.93S HX  86
$$

IAZ047>049-059>061-072>074-084-020100-
   CENTRAL IOWA

CITY           SKY/WX    TMP DP  RH WIND       PRES   REMARKS
AMES           PTCLDY    80  74  81 S6        29.95R HX  85
6HR MIN TEMP:  80; 6HR MAX TEMP:  88;

ANKENY *       CLEAR     84  72  65 S7        29.95R HX  89
CHARITON *     CLEAR     82  72  69 S7        29.98R HX  87
DES MOINES     MOCLDY    85  71  63 S7        29.95R HX  90
6HR MIN TEMP:  85; 6HR MAX TEMP:  90;

GRINNELL*      MOCLDY    82  72  69 S6        29.98S HX  87
KNOXVILLE *    CLEAR     82  72  69 S7        29.96S HX  87
MARSHALLTOWN   PTCLDY    82  74  76 S7        29.95S HX  88
6HR MIN TEMP:  82; 6HR MAX TEMP:  87;

PELLA *        MOCLDY    85  76  75 S5        29.98S HX  94
PERRY *          N/A     83  74  76 S5        29.94S HX  89
$$

IAZ004>006-015-016-023>025-035-036-020100-
   NORTH CENTRAL IOWA

CITY           SKY/WX    TMP DP  RH WIND       PRES   REMARKS
ALGONA *       CLEAR     81  75  83 S8        29.93S HX  86
CLARION *      CLEAR     81  75  83 S8        29.95R HX  86
ESTHERVILLE    MOCLDY    79  72  79 S9        29.91S HX  82
6HR MIN TEMP:  79; 6HR MAX TEMP:  82;

FORT DODGE *   CLOUDY    82  72  69 S8        29.94S HX  87
MASON CITY     MOCLDY    80  74  81 S5        29.96R HX  85
6HR MIN TEMP:  80; 6HR MAX TEMP:  86;

FOREST CITY *  CLEAR     81  72  74 S5        29.94S HX  84
IOWA FALLS *     N/A     81  75  83 S5        29.97R HX  86
$$

IAZ007>011-017>019-026>030-037>042-050>054-066-020100-
   NORTHEAST IOWA

CITY           SKY/WX    TMP DP  RH WIND       PRES   REMARKS
CEDAR RAPIDS   PTCLDY    80  75  84 S7        29.97S HX  85
6HR MIN TEMP:  80; 6HR MAX TEMP:  87;

CHARLES CITY * CLEAR     81  77  89 S5        29.96R HX  88
CLINTON *      CLEAR     81  73  78 S6        30.01R HX  85
DECORAH *      CLEAR     81  75  83 S5        29.95S HX  86
DUBUQUE        CLEAR     80  73  79 SW8       29.98S HX  84
6HR MIN TEMP:  80; 6HR MAX TEMP:  86;

MONTICELLO *   CLEAR     81  75  83 S6        29.97R HX  86
OELWEIN *      CLEAR     82  75  78 S6        29.97S HX  89
WATERLOO       MOCLDY    83  73  72 S9        29.94S HX  89
6HR MIN TEMP:  83; 6HR MAX TEMP:  88;

$$

IAZ064-065-067-068-078-020100-
   EAST CENTRAL IOWA

CITY           SKY/WX    TMP DP  RH WIND       PRES   REMARKS
DAVENPORT      CLEAR     83  72  69 S5        29.99R HX  88
6HR MIN TEMP:  83; 6HR MAX TEMP:  89;

IOWA CITY      CLEAR     84  72  67 S5        29.98R HX  89
6HR MIN TEMP:  84; 6HR MAX TEMP:  89;

MT. PLEASANT * CLEAR     82  67  60 S5        29.99S HX  85
MUSCATINE *    CLEAR     88  72  58 S3        29.98R HX  94
QUAD CITIES    CLEAR     85  72  65 S3        29.98R HX  91
6HR MIN TEMP:  85; 6HR MAX TEMP:  91;

$$

IAZ062-063-075>077-085>089-095>099-020100-
   SOUTHEAST IOWA

CITY           SKY/WX    TMP DP  RH WIND       PRES   REMARKS
BURLINGTON     CLEAR     84  70  62 S6        29.99S HAZE    HX  88
6HR MIN TEMP:  84; 6HR MAX TEMP:  92;

FAIRFIELD *    CLEAR     82  68  61 S6        29.99S HX  85
FORT MADISON * CLEAR     82  73  74 S3        30.00F HX  88
KEOKUK *       CLEAR     86  70  58 S6        29.99S HX  90
OSKALOOSA *      N/A     81  71  70 S3        29.98S HX  85
CENTERVILLE *  CLEAR     81  72  74 S5        30.01S HX  84
OTTUMWA        PTCLDY    81  72  74 S8        29.96F HX  85
6HR MIN TEMP:  81; 6HR MAX TEMP:  89;

WASHINGTON *     N/A    N/A N/A N/A MISG        N/A
$$

ABBREVIATIONS USED IN REMARKS
   TC - TEMPERATURES IN CELSIUS
  WCI - WIND CHILL INDEX
   HX - HEAT INDEX
  VSB - VISIBILITY
$$



USA.gov is the U.S. government's official web portal to all federal, state and local government web resources and services.